Regional Weather Roundup
Issued by NWS

Home | Current Version | Previous Version | Graphics & Text | Print | Product List | Glossary On
Versions: 1 2 3 4 5 6 7 8 9 10 11 12 13 14 15 16 17 18 19 20 21 22 23 24 25 26 27 28 29 30 31 32 33 34 35 36 37 38 39 40 41 42 43 44 45 46 47 48 49 50
000
ASUS43 KLMK 182102
RWRKY
KENTUCKY REGIONAL WEATHER ROUNDUP
NATIONAL WEATHER SERVICE LOUISVILLE KY
500 PM EDT MON SEP 18 2017

NOTE "FAIR" INDICATES FEW OR NO CLOUDS BELOW 12,000 FEET
WITH NO SIGNIFICANT WEATHER AND/OR OBSTRUCTIONS TO VISIBILITY.

KYZ001>023-026-027-061>063-070>075-182200-
WESTERN AND SOUTH CENTRAL KENTUCKY

CITY           SKY/WX    TMP DP  RH WIND       PRES   REMARKS
PADUCAH        CLOUDY    80  71  74 CALM      29.97F
HENDERSON      LGT RAIN  71  70  96 MISG      30.01F
OWENSBORO      LGT RAIN  72  70  93 S7        30.01F
HOPKINSVILLE   MOSUNNY   85  66  51 SW7       29.98F
BOWLING GREEN  CLOUDY    88  65  46 E8        29.99F HX  90
GLASGOW        MOSUNNY   87  62  42 W3        30.01S
$$

KYZ024-025-028>034-038-045-046-053-182200-
NORTH CENTRAL KENTUCKY

CITY           SKY/WX    TMP DP  RH WIND       PRES   REMARKS
LOUISVILLE/SDF PTSUNNY   84  65  52 CALM      30.00F
LOUISVILLE/LOU MOSUNNY   83  67  58 CALM      30.00F
FORT KNOX      MOSUNNY   83  68  61 N5        29.99F
$$

KYZ035>037-039>044-047>052-055>060-089>105-182200-
NORTHEAST KENTUCKY

CITY           SKY/WX    TMP DP  RH WIND       PRES   REMARKS
LEXINGTON      SUNNY     85  64  49 CALM      30.03F
COVINGTON      CLOUDY    83  67  58 CALM      30.01F
FRANKFORT      MOSUNNY   86  61  42 CALM      30.00F
$$

KYZ054-064>069-076>088-106>120-182200-
SOUTHEAST KENTUCKY

CITY           SKY/WX    TMP DP  RH WIND       PRES   REMARKS
JACKSON        MOSUNNY   78  63  59 CALM      30.06F
LONDON         CLOUDY    79  64  60 CALM      30.05F
SOMERSET       NOT AVBL
MIDDLESBORO    SUNNY     80  64  57 NW6       30.05S
MONTICELLO     CLEAR     83  64  52 N14       30.04F
$$





USA.gov is the U.S. government's official web portal to all federal, state and local government web resources and services.